N5CNB Weather Reports


Display with metric or nautical units.
time (UTC)temp
F
wind
direction
speed
MPH
gust
MPH
rain 1hr
in
rain 24hr
in
rain mn
in
humidity
%
barometer
mb
20260903190019 96 229 0.0 3.0 0.00 0.13 0.00 54 1013.0
20260903184523 94 159 2.0 8.0 0.00 0.13 0.00 56 1013.3
20260903183044 96 153 0.0 6.0 0.00 0.13 0.00 53 1013.4
20260903181508 97 148 0.0 5.0 0.00 0.13 0.00 54 1013.5
20260903180011 94 229 6.0 11.0 0.00 0.13 0.00 58 1013.9
20260903174530 93 143 8.0 13.0 0.00 0.13 0.00 60 1014.1
20260903173027 93 22 0.0 4.0 0.00 0.13 0.00 60 1014.4
20260903171529 93 151 2.0 6.0 0.00 0.13 0.00 62 1014.5
20260903170013 92 198 3.0 7.0 0.00 0.13 0.00 62 1014.7
20260903164517 91 281 3.0 9.0 0.00 0.13 0.00 63 1014.8
20260903163020 90 235 5.0 9.0 0.00 0.13 0.00 66 1014.6
20260903161534 90 135 5.0 12.0 0.00 0.13 0.00 69 1014.7
20260903160031 88 203 2.0 12.0 0.00 0.13 0.00 74 1014.7
20260903154511 87 252 3.0 10.0 0.00 0.13 0.00 75 1014.8
20260903153013 86 214 2.0 11.0 0.00 0.13 0.00 78 1014.7
20260903151522 86 246 4.0 9.0 0.00 0.13 0.00 80 1014.8
20260903150030 85 262 4.0 8.0 0.00 0.13 0.00 81 1014.8
20260903144531 84 255 4.0 10.0 0.00 0.13 0.00 82 1014.8
20260903143012 84 139 4.0 12.0 0.00 0.13 0.00 84 1014.8
20260903141520 83 231 1.0 10.0 0.00 0.13 0.00 85 1014.7
20260903140028 83 240 3.0 10.0 0.00 0.13 0.00 85 1014.7
20260903134536 83 120 4.0 7.0 0.00 0.13 0.00 87 1014.8
20260903133034 82 255 3.0 6.0 0.00 0.13 0.00 89 1014.7
20260903131521 80 229 1.0 4.0 0.00 0.13 0.00 91 1014.6
20260903130021 79 139 0.0 3.0 0.00 0.13 0.00 92 1014.5
20260903124546 78 209 0.0 3.0 0.00 0.13 0.00 92 1014.6
20260903123032 78 221 0.0 1.0 0.00 0.13 0.00 92 1014.3
20260903121542 78 137 0.0 0.0 0.00 0.13 0.00 91 1014.4
20260903120023 78 165 0.0 1.0 0.00 0.13 0.00 91 1014.3
20260903114528 78 221 0.0 1.0 0.00 0.13 0.00 91 1014.2
20260903113030 78 108 0.0 3.0 0.00 0.13 0.00 91 1014.1
20260903111531 78 170 0.0 4.0 0.00 0.13 0.00 91 1014.0
20260903110034 78 165 0.0 0.0 0.00 0.13 0.00 91 1014.0
20260903104526 78 220 0.0 0.0 0.00 0.13 0.00 91 1014.0
20260903103028 78 220 0.0 0.0 0.00 0.13 0.00 91 1014.0
20260903101532 78 161 0.0 0.0 0.00 0.13 0.00 91 1014.1
20260903100021 78 144 0.0 0.0 0.00 0.13 0.00 91 1014.0
20260903094518 78 137 0.0 0.0 0.00 0.13 0.00 91 1014.0
20260903093024 78 171 0.0 0.0 0.00 0.13 0.00 91 1014.0
20260903091507 78 225 1.0 3.0 0.00 0.13 0.00 91 1013.9
20260903090008 78 141 1.0 5.0 0.00 0.13 0.00 91 1013.8
20260903084515 78 147 2.0 5.0 0.00 0.13 0.00 91 1014.0
20260903083021 78 237 0.0 4.0 0.00 0.13 0.00 91 1014.0
20260903081524 78 231 1.0 5.0 0.00 0.13 0.00 91 1013.9
20260903080004 78 169 2.0 4.0 0.00 0.13 0.00 90 1013.8
20260903074513 78 209 0.0 3.0 0.00 0.13 0.00 90 1013.8
20260903073016 78 217 0.0 7.0 0.00 0.13 0.00 90 1013.6
20260903071519 79 212 1.0 4.0 0.00 0.13 0.00 90 1013.8
20260903070028 79 186 2.0 6.0 0.00 0.13 0.00 90 1013.9
20260903064508 79 214 3.0 7.0 0.00 0.13 0.00 89 1013.9
20260903063010 79 217 3.0 10.0 0.00 0.13 0.00 89 1013.9
20260903061519 79 217 4.0 10.0 0.00 0.13 0.00 89 1014.0
20260903060023 79 133 6.0 13.0 0.00 0.13 0.00 89 1014.1
20260903054533 79 131 5.0 10.0 0.02 0.13 0.00 89 1014.1
20260903053011 79 150 6.0 13.0 0.05 0.13 0.00 89 1014.1
20260903051516 79 139 2.0 9.0 0.09 0.13 0.00 90 1014.2
20260903050023 78 96 5.0 11.0 0.09 0.13 0.00 90 1014.3
20260903044528 77 129 2.0 4.0 0.07 0.11 0.11 90 1014.6
20260903043030 77 143 0.0 5.0 0.05 0.08 0.08 89 1014.9
20260903041510 77 174 0.0 5.0 0.03 0.04 0.04 88 1015.5
20260903040023 78 297 3.0 6.0 0.04 0.04 0.04 87 1015.8
20260903034523 79 347 2.0 10.0 0.04 0.04 0.04 87 1015.6
20260903033028 80 8 0.0 2.0 0.03 0.03 0.03 84 1015.4
20260903031531 83 291 0.0 2.0 0.01 0.01 0.01 81 1015.1
20260903030013 85 65 0.0 4.0 0.00 0.00 0.00 73 1015.1
20260903024516 86 75 1.0 5.0 0.00 0.00 0.00 70 1014.5
20260903023024 86 256 0.0 5.0 0.00 0.00 0.00 68 1013.8
20260903021530 86 86 0.0 7.0 0.00 0.00 0.00 65 1013.2
20260903020039 87 161 7.0 14.0 0.00 0.00 0.00 63 1012.7
20260903014515 87 166 6.0 16.0 0.00 0.00 0.00 61 1012.4
20260903013021 88 132 4.0 13.0 0.00 0.00 0.00 61 1012.1
20260903011529 89 134 7.0 14.0 0.00 0.00 0.00 59 1011.8
20260903010032 89 188 7.0 12.0 0.00 0.00 0.00 61 1011.8
20260903004534 90 148 6.0 13.0 0.00 0.00 0.00 62 1011.6
20260903003011 90 117 5.0 16.0 0.00 0.00 0.00 63 1011.4
20260903001513 92 243 7.0 14.0 0.00 0.00 0.00 60 1011.3
20260903000014 95 176 8.0 15.0 0.00 0.00 0.00 56 1011.3
20260902234506 96 165 4.0 9.0 0.00 0.00 0.00 49 1011.0
20260902233012 97 216 4.0 9.0 0.00 0.00 0.00 48 1011.3
20260902231513 95 134 3.0 7.0 0.00 0.00 0.00 50 1011.2
20260902230016 95 101 3.0 12.0 0.00 0.00 0.00 50 1011.2
20260902224516 95 124 4.0 11.0 0.00 0.00 0.00 50 1011.2
20260902223008 96 146 6.0 11.0 0.00 0.00 0.00 49 1011.2
20260902221516 97 67 3.0 10.0 0.00 0.00 0.00 47 1011.3
20260902220018 100 200 0.0 4.0 0.00 0.00 0.00 40 1011.2
20260902214517 102 221 0.0 4.0 0.00 0.00 0.00 39 1011.3
20260902213014 102 290 0.0 4.0 0.00 0.00 0.00 39 1011.5
20260902211514 100 276 4.0 9.0 0.00 0.00 0.00 42 1011.6
20260902210013 100 172 3.0 5.0 0.00 0.00 0.00 42 1011.7
20260902204534 100 154 2.0 10.0 0.00 0.00 0.00 42 1011.9
20260902203017 100 161 5.0 7.0 0.00 0.00 0.00 41 1012.0
20260902201519 100 135 3.0 9.0 0.00 0.00 0.00 41 1012.3
20260902200009 101 195 1.0 6.0 0.00 0.00 0.00 42 1012.5
20260902194515 100 312 4.0 9.0 0.00 0.00 0.00 42 1012.8
20260902193021 100 54 4.0 9.0 0.00 0.00 0.00 43 1013.0
20260902191521 100 146 3.0 8.0 0.00 0.00 0.00 45 1013.5